GW2295 Weather Reports


time (UTC)temp
C
wind
direction
speed
KPH
gust
KPH
rain 1hr
cm
rain 24hr
cm
rain mn
cm
humidity
%
barometer
mb
20260504232110 21 0.0 0.0 0.00 0.00 0.00 39 1008.2
20260504231606 21 0.0 0.0 0.00 0.00 0.00 39 1008.5
20260504231103 21 0.0 0.0 0.00 0.00 0.00 38 1008.5
20260504230558 21 0.0 0.0 0.00 0.00 0.00 38 1008.5
20260504230053 21 0.0 0.0 0.00 0.00 0.00 38 1008.5
20260504225549 21 0.0 0.0 0.00 0.00 0.00 38 1008.5
20260504225046 21 0.0 0.0 0.00 0.00 0.00 38 1008.5
20260504224543 21 0.0 0.0 0.00 0.00 0.00 38 1008.5
20260504224040 21 0.0 0.0 0.00 0.00 0.00 38 1008.2
20260504223537 21 0.0 0.0 0.00 0.00 0.00 38 1008.2
20260504223033 21 0.0 0.0 0.00 0.00 0.00 38 1008.2
20260504222530 21 0.0 0.0 0.00 0.00 0.00 37 1008.2
20260504222027 21 0.0 0.0 0.00 0.00 0.00 37 1008.5
20260504221524 21 0.0 0.0 0.00 0.00 0.00 37 1008.2
20260504221021 21 0.0 0.0 0.00 0.00 0.00 37 1008.2
20260504220517 21 0.0 0.0 0.00 0.00 0.00 37 1008.2
20260504220015 21 0.0 0.0 0.00 0.00 0.00 38 1008.5
20260504215511 21 0.0 0.0 0.00 0.00 0.00 38 1008.2
20260504215009 21 0.0 0.0 0.00 0.00 0.00 38 1008.2
20260504214504 21 0.0 0.0 0.00 0.00 0.00 38 1008.5
20260504214001 21 0.0 0.0 0.00 0.00 0.00 38 1008.5
20260504213457 21 0.0 0.0 0.00 0.00 0.00 38 1008.5
20260504212955 21 0.0 0.0 0.00 0.00 0.00 38 1008.2
20260504212450 21 0.0 0.0 0.00 0.00 0.00 38 1008.2
20260504211948 21 0.0 0.0 0.00 0.00 0.00 38 1008.2
20260504211444 21 0.0 0.0 0.00 0.00 0.00 38 1008.5
20260504210942 21 0.0 0.0 0.00 0.00 0.00 38 1008.2
20260504210438 21 0.0 0.0 0.00 0.00 0.00 38 1008.5
20260504205936 21 0.0 0.0 0.00 0.00 0.00 38 1008.5
20260504205433 21 0.0 0.0 0.00 0.00 0.00 39 1008.5
20260504204931 21 0.0 0.0 0.00 0.00 0.00 39 1008.2
20260504204429 21 0.0 0.0 0.00 0.00 0.00 40 1008.5
20260504203928 21 0.0 0.0 0.00 0.00 0.00 39 1008.2
20260504203425 21 0.0 0.0 0.00 0.00 0.00 39 1008.5
20260504202921 21 0.0 0.0 0.00 0.00 0.00 39 1008.5
20260504202418 21 0.0 0.0 0.00 0.00 0.00 40 1008.5
20260504201915 21 0.0 0.0 0.00 0.00 0.00 40 1008.8
20260504201412 21 0.0 0.0 0.00 0.00 0.00 40 1008.8
20260504200909 21 0.0 0.0 0.00 0.00 0.00 41 1008.8
20260504200406 21 0.0 0.0 0.00 0.00 0.00 41 1008.5
20260504195903 21 0.0 0.0 0.00 0.00 0.00 42 1008.8
20260504195358 20 0.0 0.0 0.00 0.00 0.00 41 1009.2
20260504194855 20 0.0 0.0 0.00 0.00 0.00 42 1009.2
20260504194351 20 0.0 0.0 0.00 0.00 0.00 42 1009.2
20260504193847 20 0.0 0.0 0.00 0.00 0.00 42 1009.5
20260504193344 20 0.0 0.0 0.00 0.00 0.00 43 1009.2
20260504192843 20 0.0 0.0 0.00 0.00 0.00 42 1009.5
20260504192341 20 0.0 0.0 0.00 0.00 0.00 42 1009.5
20260504191839 20 0.0 0.0 0.00 0.00 0.00 43 1009.8
20260504191337 20 0.0 0.0 0.00 0.00 0.00 42 1009.5
20260504190832 20 0.0 0.0 0.00 0.00 0.00 43 1009.8
20260504190328 20 0.0 0.0 0.00 0.00 0.00 43 1009.8
20260504185825 20 0.0 0.0 0.00 0.00 0.00 44 1010.2
20260504185322 20 0.0 0.0 0.00 0.00 0.00 43 1010.2
20260504184818 20 0.0 0.0 0.00 0.00 0.00 43 1010.2
20260504184314 20 0.0 0.0 0.00 0.00 0.00 43 1010.2
20260504183809 20 0.0 0.0 0.00 0.00 0.00 43 1010.2
20260504183307 20 0.0 0.0 0.00 0.00 0.00 43 1010.2
20260504182805 20 0.0 0.0 0.00 0.00 0.00 43 1010.5
20260504182304 20 0.0 0.0 0.00 0.00 0.00 43 1010.5
20260504181759 20 0.0 0.0 0.00 0.00 0.00 43 1010.5
20260504181256 19 0.0 0.0 0.00 0.00 0.00 43 1010.5
20260504180755 19 0.0 0.0 0.00 0.00 0.00 43 1010.9
20260504180253 19 0.0 0.0 0.00 0.00 0.00 43 1010.9
20260504175751 19 0.0 0.0 0.00 0.00 0.00 43 1010.5
20260504175247 19 0.0 0.0 0.00 0.00 0.00 43 1010.9
20260504174745 18 0.0 0.0 0.00 0.00 0.00 43 1010.9
20260504174243 18 0.0 0.0 0.00 0.00 0.00 43 1010.9
20260504173739 18 0.0 0.0 0.00 0.00 0.00 44 1010.9
20260504173236 18 0.0 0.0 0.00 0.00 0.00 44 1010.9
20260504172733 18 0.0 0.0 0.00 0.00 0.00 45 1010.9
20260504172230 18 0.0 0.0 0.00 0.00 0.00 45 1010.9
20260504171726 18 0.0 0.0 0.00 0.00 0.00 45 1010.9
20260504171223 18 0.0 0.0 0.00 0.00 0.00 45 1011.2
20260504170720 18 0.0 0.0 0.00 0.00 0.00 45 1011.5
20260504170217 18 0.0 0.0 0.00 0.00 0.00 45 1011.2
20260504160136 16 0.0 0.0 0.00 0.00 0.00 49 1012.2
20260504151103 15 0.0 0.0 0.00 0.00 0.00 51 1012.6
20260504150601 15 0.0 0.0 0.00 0.00 0.00 52 1012.6
20260504141026 13 0.0 0.0 0.00 0.00 0.00 59 1012.9
20260504140523 13 0.0 0.0 0.00 0.00 0.00 59 1012.6
20260504130447 11 0.0 0.0 0.00 0.00 0.00 65 1013.3
20260504110334 8 0.0 0.0 0.00 0.00 0.00 72 1013.7
20260504100252 8 0.0 0.0 0.00 0.00 0.00 73 1013.7
20260504081645 8 0.0 0.0 0.00 0.00 0.00 70 1014.0
20260504081141 8 0.0 0.0 0.00 0.00 0.00 70 1014.4
20260504080638 8 0.0 0.0 0.00 0.00 0.00 70 1014.4
20260504080134 8 0.0 0.0 0.00 0.00 0.00 70 1014.4
20260504050451 8 0.0 0.0 0.00 0.00 0.00 61 1014.4
20260504045948 8 0.0 0.0 0.00 0.00 0.00 61 1014.4
20260504045443 8 0.0 0.0 0.00 0.00 0.00 61 1014.4
20260504044940 8 0.0 0.0 0.00 0.00 0.00 61 1014.4
20260504044437 8 0.0 0.0 0.00 0.00 0.00 60 1014.4
20260504043935 8 0.0 0.0 0.00 0.00 0.00 60 1014.4
20260504043431 8 0.0 0.0 0.00 0.00 0.00 60 1014.4
20260504042929 8 0.0 0.0 0.00 0.00 0.00 60 1014.4
20260504042426 8 0.0 0.0 0.00 0.00 0.00 60 1014.4
20260504041922 8 0.0 0.0 0.00 0.00 0.00 59 1014.4
20260504041418 8 0.0 0.0 0.00 0.00 0.00 59 1014.4
20260504040914 8 0.0 0.0 0.00 0.00 0.00 59 1014.4
20260504040413 8 0.0 0.0 0.00 0.00 0.00 58 1014.4
20260504035908 8 0.0 0.0 0.00 0.00 0.00 57 1014.4
20260504035406 9 0.0 0.0 0.00 0.00 0.00 57 1014.4
20260504034902 9 0.0 0.0 0.00 0.00 0.00 57 1014.4
20260504034359 9 0.0 0.0 0.00 0.00 0.00 57 1014.4
20260504033856 9 0.0 0.0 0.00 0.00 0.00 56 1014.4
20260504033354 9 0.0 0.0 0.00 0.00 0.00 56 1014.4
20260504032851 9 0.0 0.0 0.00 0.00 0.00 56 1014.4
20260504032348 9 0.0 0.0 0.00 0.00 0.00 55 1014.0
20260504031844 10 0.0 0.0 0.00 0.00 0.00 55 1014.0
20260504031342 10 0.0 0.0 0.00 0.00 0.00 55 1013.7
20260504030838 10 0.0 0.0 0.00 0.00 0.00 55 1013.7
20260504030336 10 0.0 0.0 0.00 0.00 0.00 54 1013.7
20260504025832 10 0.0 0.0 0.00 0.00 0.00 54 1013.7
20260504025329 10 0.0 0.0 0.00 0.00 0.00 54 1014.0
20260504024825 10 0.0 0.0 0.00 0.00 0.00 54 1013.7
20260504024322 10 0.0 0.0 0.00 0.00 0.00 53 1014.0
20260504023819 10 0.0 0.0 0.00 0.00 0.00 53 1013.7
20260504023315 10 0.0 0.0 0.00 0.00 0.00 53 1013.7
20260504022811 10 0.0 0.0 0.00 0.00 0.00 53 1014.0
20260504022308 11 0.0 0.0 0.00 0.00 0.00 52 1014.0
20260504021804 11 0.0 0.0 0.00 0.00 0.00 52 1013.7
20260504021302 11 0.0 0.0 0.00 0.00 0.00 51 1013.7
20260504020759 11 0.0 0.0 0.00 0.00 0.00 50 1013.7
20260504020255 11 0.0 0.0 0.00 0.00 0.00 50 1013.7
20260504015751 11 0.0 0.0 0.00 0.00 0.00 50 1013.7
20260504015248 11 0.0 0.0 0.00 0.00 0.00 50 1013.7
20260504014744 11 0.0 0.0 0.00 0.00 0.00 50 1013.7
20260504014240 11 0.0 0.0 0.00 0.00 0.00 49 1014.0
20260504013738 11 0.0 0.0 0.00 0.00 0.00 49 1013.7
20260504013236 11 0.0 0.0 0.00 0.00 0.00 49 1013.7
20260504012732 12 0.0 0.0 0.00 0.00 0.00 48 1013.7
20260504012230 12 0.0 0.0 0.00 0.00 0.00 48 1013.7
20260504011726 12 0.0 0.0 0.00 0.00 0.00 48 1013.7
20260504011223 12 0.0 0.0 0.00 0.00 0.00 48 1013.7
20260504010719 12 0.0 0.0 0.00 0.00 0.00 47 1013.3
20260504010215 12 0.0 0.0 0.00 0.00 0.00 47 1013.7
20260504005712 12 0.0 0.0 0.00 0.00 0.00 47 1013.7
20260504005209 12 0.0 0.0 0.00 0.00 0.00 46 1013.3
20260504004707 12 0.0 0.0 0.00 0.00 0.00 46 1013.3
20260504004204 13 0.0 0.0 0.00 0.00 0.00 45 1013.3
20260504003700 13 0.0 0.0 0.00 0.00 0.00 44 1012.9
20260504003157 13 0.0 0.0 0.00 0.00 0.00 43 1013.3
20260504002654 13 0.0 0.0 0.00 0.00 0.00 43 1013.3
20260504002151 13 0.0 0.0 0.00 0.00 0.00 42 1012.9
20260504001649 13 0.0 0.0 0.00 0.00 0.00 42 1012.9
20260504001145 13 0.0 0.0 0.00 0.00 0.00 42 1012.9
20260504000642 13 0.0 0.0 0.00 0.00 0.00 41 1012.9
20260504000139 13 0.0 0.0 0.00 0.00 0.00 41 1012.9
20260503235637 13 0.0 0.0 0.00 0.00 0.00 40 1012.9
20260503235134 13 0.0 0.0 0.00 0.00 0.00 39 1012.9
20260503234632 14 0.0 0.0 0.00 0.00 0.00 39 1012.9
20260503234130 14 0.0 0.0 0.00 0.00 0.00 39 1012.6
20260503233627 14 0.0 0.0 0.00 0.00 0.00 38 1012.6
20260503233122 14 0.0 0.0 0.00 0.00 0.00 37 1012.6
20260503232619 14 0.0 0.0 0.00 0.00 0.00 37 1012.9